Вернуться в каталог

STARLINK-30438

АктивенСвязьVLEO
NORAD 58035·PAYLOAD·🇺🇸 United States

Запущен Oct 9, 2023 с Vandenberg Space Force Base

Loading…

Ближайшие Пролёты (ближайшие 24 часа)

TLE

СвежийSource: CelesTrak SupGP

Эпоха: Sep 15, 2026, 02:36 UTC

1 58035C 23156H   26258.10881944 -.00002050  00000+0 -65897-4 0  2581
2 58035  53.1582 277.9937 0001383  86.7432 307.1641 15.31709959    18

Отслеживайте STARLINK-30438 в реальном времени с AllMySat

Download on the App Store